Location: Unspecified
(58.7730°N, 5.8460°E)
Time: 02:35:28
(UTC+01:00)

CZ-3 Stage 3 - Visible Passes

Search period start: 27 November 2014 00:00
Search period end: 07 December 2014 00:00
Orbit: 426 x 34807 km, 31.0° (Epoch: 26 November)

Date Brightness Start Highest point End Pass type
(mag) Time Alt. Az. Time Alt. Az. Time Alt. Az.
27 Nov 6.7 23:54:59 10° SW 05:58:33 28° SW 06:12:12 10° S visible
28 Nov 7.3 19:42:17 10° SSE 02:09:00 43° S 02:39:55 10° ESE visible
29 Nov 8.0 18:31:10 10° ESE 22:38:33 26° ESE 22:58:59 10° E visible
30 Nov 6.7 23:44:18 10° SW 05:53:45 27° SW 06:07:34 10° S visible
01 Dec 7.3 19:29:43 10° SSE 02:04:16 44° S 02:35:29 10° ESE visible
02 Dec 7.9 18:15:08 10° ESE 22:38:43 24° ESE 22:54:58 10° E visible
03 Dec 6.7 23:33:57 10° SW 05:48:51 27° SW 06:02:50 10° S visible
04 Dec 7.2 19:17:28 10° SSE 02:04:02 44° S 02:31:00 10° ESE visible
05 Dec 7.9 17:59:15 10° ESE 22:38:18 23° ESE 22:50:50 10° E visible
06 Dec 10.4 23:23:55 10° SW 00:00:00 12° SW 00:00:00 12° SW visible
